N3HCP Weather Reports


Display with metric or nautical units.
time (UTC)temp
F
wind
direction
speed
MPH
gust
MPH
rain 1hr
in
rain 24hr
in
rain mn
in
humidity
%
barometer
mb
20260506221507 65 213 0.0 1.0 0.00 0.30 0.30 88 1005.9
20260506221010 66 249 0.0 1.0 0.00 0.30 0.30 87 1005.8
20260506220507 66 233 0.0 3.0 0.00 0.30 0.30 87 1005.8
20260506220006 66 237 0.0 1.0 0.00 0.30 0.30 87 1005.9
20260506215507 66 248 0.0 1.0 0.00 0.30 0.30 88 1005.6
20260506215104 66 231 0.0 6.0 0.00 0.30 0.30 87 1005.8
20260506214502 66 215 1.0 6.0 0.00 0.30 0.30 86 1005.6
20260506214001 66 236 0.0 3.0 0.00 0.30 0.30 87 1005.5
20260506213502 66 155 0.0 3.0 0.00 0.30 0.30 87 1005.5
20260506213139 66 197 0.0 3.0 0.00 0.30 0.30 87 1005.5
20260506212601 66 230 0.0 3.0 0.00 0.30 0.30 87 1005.6
20260506212059 66 230 0.0 4.0 0.00 0.30 0.30 87 1005.7
20260506211623 67 77 0.0 5.0 0.00 0.30 0.30 86 1005.5
20260506211058 67 255 0.0 4.0 0.00 0.30 0.30 86 1005.5
20260506210557 67 158 1.0 4.0 0.00 0.30 0.30 85 1005.5
20260506205555 68 204 0.0 3.0 0.00 0.30 0.30 84 1005.2
20260506205055 68 223 0.0 7.0 0.00 0.30 0.30 85 1005.2
20260506204558 68 267 1.0 7.0 0.00 0.30 0.30 84 1005.3
20260506204052 68 203 1.0 7.0 0.00 0.30 0.30 84 1005.1
20260506203551 68 210 0.0 9.0 0.00 0.30 0.30 86 1005.2
20260506203052 67 156 0.0 4.0 0.00 0.30 0.30 87 1005.1
20260506202548 67 256 1.0 3.0 0.00 0.30 0.30 87 1005.2
20260506202052 66 238 0.0 3.0 0.00 0.30 0.30 88 1005.1
20260506201558 65 214 0.0 4.0 0.00 0.30 0.30 89 1005.1
20260506201048 65 243 1.0 4.0 0.00 0.30 0.30 88 1005.2
20260506200545 65 206 0.0 3.0 0.00 0.30 0.30 88 1005.2
20260506200045 65 241 0.0 5.0 0.00 0.30 0.30 88 1005.1
20260506195544 65 248 1.0 6.0 0.00 0.30 0.30 87 1005.2
20260506195044 66 208 1.0 6.0 0.00 0.30 0.30 87 1005.3
20260506194555 66 200 0.0 4.0 0.00 0.30 0.30 88 1005.3
20260506194045 66 161 1.0 4.0 0.00 0.30 0.30 86 1005.4
20260506193644 66 233 0.0 5.0 0.00 0.30 0.30 86 1005.4
20260506193041 67 233 1.0 8.0 0.00 0.30 0.30 86 1005.4
20260506192543 67 202 0.0 8.0 0.00 0.30 0.30 87 1005.2
20260506192038 66 257 1.0 8.0 0.00 0.30 0.30 88 1005.2
20260506191544 66 132 0.0 8.0 0.00 0.30 0.30 88 1005.3
20260506191036 65 253 0.0 5.0 0.00 0.30 0.30 89 1005.4
20260506190535 65 230 0.0 8.0 0.00 0.30 0.30 89 1005.3
20260506190136 65 223 3.0 8.0 0.00 0.30 0.30 88 1005.5
20260506185532 65 158 1.0 3.0 0.00 0.30 0.30 89 1005.6
20260506185035 65 249 1.0 6.0 0.00 0.30 0.30 90 1005.6
20260506184531 65 205 1.0 9.0 0.00 0.30 0.30 90 1005.7
20260506184032 64 210 1.0 9.0 0.00 0.30 0.30 91 1005.8
20260506183530 64 260 1.0 5.0 0.00 0.30 0.30 93 1005.8
20260506183039 63 200 0.0 3.0 0.00 0.30 0.30 94 1005.9
20260506182529 62 207 0.0 3.0 0.00 0.30 0.30 95 1005.8
20260506182027 62 204 0.0 5.0 0.00 0.30 0.30 95 1006.0
20260506181528 62 170 1.0 5.0 0.00 0.30 0.30 95 1006.0
20260506181025 61 243 0.0 6.0 0.00 0.30 0.30 95 1006.1
20260506180528 61 184 1.0 8.0 0.00 0.30 0.30 94 1006.0
20260506180027 61 209 2.0 8.0 0.00 0.30 0.30 94 1006.1
20260506175524 61 227 0.0 5.0 0.00 0.30 0.30 94 1006.2
20260506175024 61 257 1.0 6.0 0.00 0.30 0.30 94 1006.1
20260506174523 61 140 1.0 6.0 0.00 0.30 0.30 94 1006.1
20260506174022 61 163 3.0 6.0 0.00 0.30 0.30 94 1006.1
20260506173523 61 158 1.0 7.0 0.00 0.30 0.30 94 1006.2
20260506173023 61 195 2.0 7.0 0.00 0.30 0.30 94 1006.1
20260506172521 61 187 2.0 6.0 0.00 0.30 0.30 94 1006.1
20260506172018 61 143 2.0 6.0 0.00 0.30 0.30 94 1006.1
20260506171525 61 253 2.0 7.0 0.00 0.30 0.30 94 1006.0
20260506171021 61 210 1.0 5.0 0.00 0.30 0.30 95 1006.0
20260506170519 61 180 1.0 9.0 0.00 0.30 0.30 95 1005.9
20260506170018 60 166 3.0 9.0 0.00 0.30 0.30 95 1005.9
20260506165514 60 205 1.0 5.0 0.00 0.30 0.30 95 1006.1
20260506165012 60 110 2.0 5.0 0.00 0.30 0.30 95 1006.0
20260506164510 60 169 1.0 7.0 0.00 0.30 0.30 95 1006.0
20260506164016 60 161 2.0 7.0 0.01 0.30 0.30 95 1006.0
20260506163509 60 181 2.0 6.0 0.02 0.30 0.30 95 1005.9
20260506163008 60 155 1.0 7.0 0.02 0.30 0.30 95 1006.0
20260506162507 60 202 3.0 7.0 0.03 0.30 0.30 95 1006.1
20260506162008 60 177 2.0 8.0 0.04 0.30 0.30 95 1006.3
20260506161508 60 169 2.0 9.0 0.05 0.30 0.30 95 1006.3
20260506161006 60 176 3.0 0.0 0.00 0.00 0.30 95 1006.1
20260506160506 60 140 2.0 8.0 0.08 0.30 0.30 95 1006.0
20260506160005 60 176 2.0 8.0 0.09 0.30 0.30 96 1005.9
20260506155504 60 142 3.0 7.0 0.10 0.30 0.30 96 1005.9
20260506155003 60 136 1.0 8.0 0.11 0.30 0.30 96 1005.8
20260506154502 60 138 2.0 8.0 0.12 0.30 0.30 96 1005.9
20260506154002 60 134 2.0 7.0 0.11 0.28 0.28 96 1005.6
20260506153601 60 129 2.0 7.0 0.11 0.28 0.28 96 1005.7
20260506153501 60 176 2.0 9.0 0.11 0.28 0.28 96 1005.8
20260506153103 60 108 2.0 9.0 0.12 0.28 0.28 96 1005.9
20260506152559 60 138 2.0 5.0 0.12 0.27 0.27 96 1006.1
20260506152058 60 168 1.0 5.0 0.11 0.26 0.26 96 1006.2
20260506151556 60 172 1.0 5.0 0.10 0.25 0.25 95 1006.4
20260506151100 60 172 0.0 3.0 0.09 0.23 0.23 95 1006.6
20260506150555 60 122 1.0 4.0 0.09 0.22 0.22 95 1006.8
20260506150054 60 201 1.0 4.0 0.09 0.21 0.21 95 1007.0
20260506145553 60 177 1.0 4.0 0.09 0.20 0.20 94 1007.1
20260506145056 60 117 0.0 5.0 0.09 0.19 0.19 94 1007.2
20260506144602 60 139 2.0 11.0 0.09 0.18 0.18 94 1007.2
20260506144051 60 148 3.0 11.0 0.10 0.18 0.18 94 1007.1
20260506143549 61 203 2.0 7.0 0.10 0.17 0.17 94 1006.9
20260506143048 61 207 2.0 7.0 0.09 0.16 0.16 93 1006.7
20260506142549 61 126 2.0 6.0 0.08 0.15 0.15 93 1006.5
20260506142046 61 151 0.0 5.0 0.08 0.15 0.15 94 1006.5
20260506141545 61 171 1.0 4.0 0.08 0.15 0.15 94 1006.7
20260506141046 60 131 0.0 4.0 0.08 0.14 0.14 94 1006.4
20260506140544 60 169 0.0 4.0 0.07 0.13 0.13 94 1006.5
20260506140046 60 144 0.0 5.0 0.07 0.12 0.12 94 1006.4
20260506135541 60 133 0.0 3.0 0.06 0.11 0.11 94 1006.5
20260506135041 60 153 0.0 3.0 0.05 0.10 0.10 93 1006.5
20260506134539 60 121 0.0 2.0 0.05 0.09 0.09 93 1006.5
20260506134040 61 139 0.0 1.0 0.04 0.08 0.08 93 1006.8
20260506133539 61 135 0.0 1.0 0.03 0.07 0.07 93 1006.8
20260506133037 61 153 0.0 1.0 0.04 0.07 0.07 93 1006.8
20260506132536 61 118 0.0 2.0 0.04 0.07 0.07 93 1006.8
20260506132039 61 102 0.0 2.0 0.05 0.07 0.07 92 1006.7
20260506131536 61 151 0.0 3.0 0.05 0.07 0.07 92 1006.7
20260506131034 61 146 0.0 4.0 0.04 0.06 0.06 91 1006.8
20260506130533 61 129 1.0 4.0 0.04 0.06 0.06 91 1006.8
20260506130033 61 174 1.0 4.0 0.03 0.05 0.05 91 1007.1
20260506125531 61 157 1.0 4.0 0.03 0.05 0.05 91 1007.1
20260506125031 61 148 0.0 3.0 0.04 0.05 0.05 91 1007.1
20260506124531 61 144 0.0 2.0 0.03 0.04 0.04 90 1007.1
20260506124029 61 131 0.0 2.0 0.03 0.04 0.04 90 1007.2
20260506123528 61 182 0.0 3.0 0.04 0.04 0.04 90 1007.2
20260506123030 61 128 0.0 5.0 0.03 0.03 0.03 89 1007.2
20260506122526 61 173 1.0 5.0 0.03 0.03 0.03 89 1007.3
20260506122024 61 193 0.0 6.0 0.02 0.02 0.02 89 1007.3
20260506121526 61 155 1.0 6.0 0.02 0.02 0.02 89 1007.3
20260506121024 61 173 0.0 3.0 0.02 0.02 0.02 88 1007.1
20260506120522 61 145 0.0 5.0 0.02 0.02 0.02 88 1007.0
20260506120033 61 158 1.0 5.0 0.02 0.02 0.02 88 1006.8
20260506115520 61 158 0.0 2.0 0.02 0.02 0.02 87 1006.8
20260506115018 62 176 0.0 5.0 0.01 0.01 0.01 86 1006.7
20260506114515 62 168 0.0 5.0 0.01 0.01 0.01 86 1006.6
20260506114014 62 160 0.0 5.0 0.01 0.01 0.01 85 1006.6
20260506113512 62 157 1.0 6.0 0.00 0.00 0.00 84 1006.6
20260506113021 63 143 1.0 6.0 0.00 0.00 0.00 83 1006.6
20260506112510 63 190 1.0 6.0 0.00 0.00 0.00 82 1006.5
20260506112011 63 174 2.0 6.0 0.00 0.00 0.00 81 1006.5
20260506111507 63 156 2.0 6.0 0.00 0.00 0.00 80 1006.3
20260506111010 63 146 1.0 8.0 0.00 0.00 0.00 80 1006.3
20260506110507 64 159 3.0 8.0 0.00 0.00 0.00 80 1006.2
20260506110008 64 127 2.0 8.0 0.00 0.00 0.00 79 1006.2
20260506105504 64 148 1.0 8.0 0.00 0.00 0.00 79 1006.2
20260506105002 64 165 2.0 7.0 0.00 0.00 0.00 78 1006.2
20260506104502 64 238 2.0 8.0 0.00 0.00 0.00 78 1006.2
20260506104000 64 148 3.0 8.0 0.00 0.00 0.00 78 1006.0
20260506103501 64 204 1.0 7.0 0.00 0.00 0.00 78 1006.0
20260506103125 64 161 2.0 7.0 0.00 0.00 0.00 78 1005.9
20260506102600 64 158 2.0 6.0 0.00 0.00 0.00 77 1005.9
20260506102102 64 130 2.0 9.0 0.00 0.00 0.00 77 1005.9
20260506101558 64 146 2.0 9.0 0.00 0.00 0.00 77 1005.9
20260506101058 63 194 2.0 8.0 0.00 0.00 0.00 78 1005.9
20260506100558 63 156 1.0 6.0 0.00 0.00 0.00 78 1005.9
20260506100057 63 135 1.0 9.0 0.00 0.00 0.00 78 1005.8
20260506095556 63 136 1.0 3.0 0.00 0.00 0.00 77 1005.8
20260506095057 63 113 1.0 5.0 0.00 0.00 0.00 77 1005.8
20260506094601 63 134 1.0 5.0 0.00 0.00 0.00 77 1005.8
20260506094053 63 105 0.0 4.0 0.00 0.00 0.00 77 1005.8
20260506093652 63 140 0.0 8.0 0.00 0.00 0.00 77 1005.8
20260506093051 63 120 1.0 8.0 0.00 0.00 0.00 76 1005.9
20260506092550 63 146 1.0 4.0 0.00 0.00 0.00 76 1006.0
20260506092049 63 170 1.0 4.0 0.00 0.00 0.00 76 1005.9
20260506091549 63 158 1.0 5.0 0.00 0.00 0.00 76 1005.9
20260506091048 63 136 2.0 5.0 0.00 0.00 0.00 76 1005.9
20260506090549 63 154 2.0 6.0 0.00 0.00 0.00 76 1006.1
20260506090051 63 168 2.0 6.0 0.00 0.00 0.00 76 1006.0
20260506085545 63 136 1.0 5.0 0.00 0.00 0.00 76 1006.0
20260506085043 63 158 2.0 8.0 0.00 0.00 0.00 75 1006.0
20260506084559 63 80 1.0 8.0 0.00 0.00 0.00 75 1006.1
20260506084041 64 136 1.0 2.0 0.00 0.00 0.00 75 1006.2
20260506083540 64 158 0.0 4.0 0.00 0.00 0.00 74 1006.2
20260506083041 64 177 1.0 6.0 0.00 0.00 0.00 73 1006.2
20260506082538 64 128 1.0 6.0 0.00 0.00 0.00 73 1006.1
20260506082037 64 138 0.0 5.0 0.00 0.00 0.00 72 1006.2
20260506081541 64 134 0.0 5.0 0.00 0.00 0.00 72 1006.2
20260506081035 65 128 0.0 4.0 0.00 0.00 0.00 71 1006.1
20260506080535 65 165 1.0 5.0 0.00 0.00 0.00 71 1006.1
20260506073528 65 159 0.0 4.0 0.00 0.00 0.00 69 1006.4
20260506073027 65 143 1.0 6.0 0.00 0.00 0.00 68 1006.3
20260506072525 65 139 0.0 4.0 0.00 0.00 0.00 68 1006.3
20260506072024 65 134 1.0 7.0 0.00 0.00 0.00 68 1006.4
20260506071524 65 169 1.0 6.0 0.00 0.00 0.00 67 1006.5
20260506071026 66 130 1.0 6.0 0.00 0.00 0.00 67 1006.4
20260506070521 66 110 1.0 5.0 0.00 0.00 0.00 66 1006.5
20260506062512 66 155 2.0 5.0 0.00 0.00 0.00 64 1007.0
20260506062013 66 146 2.0 12.0 0.00 0.00 0.00 64 1007.0
20260506061515 66 111 1.0 12.0 0.00 0.00 0.00 64 1007.1
20260506061010 66 136 0.0 4.0 0.00 0.00 0.00 64 1007.2
20260506060509 66 158 1.0 4.0 0.00 0.00 0.00 64 1007.2
20260506051057 66 131 1.0 5.0 0.00 0.00 0.00 62 1007.8
20260506050600 66 145 1.0 4.0 0.00 0.00 0.00 62 1007.8
20260506050110 66 131 1.0 4.0 0.00 0.00 0.00 62 1007.7
20260506045055 66 150 0.0 5.0 0.00 0.00 0.00 62 1007.8
20260506044554 66 169 1.0 5.0 0.00 0.00 0.00 61 1007.8
20260506044051 67 167 1.0 4.0 0.00 0.00 0.00 61 1007.7
20260506043549 67 163 1.0 4.0 0.00 0.00 0.00 61 1007.6
20260506043055 67 118 0.0 4.0 0.00 0.00 0.00 61 1007.6
20260506042548 67 168 1.0 4.0 0.00 0.00 0.00 60 1007.8
20260506042048 67 207 1.0 6.0 0.00 0.00 0.00 60 1007.8
20260506041546 67 188 1.0 5.0 0.00 0.00 0.00 60 1007.8
20260506041047 67 103 1.0 4.0 0.00 0.00 0.00 60 1007.8
20260506040544 67 133 0.0 9.0 0.00 0.00 0.00 60 1007.7
20260506040046 67 166 1.0 9.0 0.00 0.00 0.00 60 1007.8
20260506035542 67 150 0.0 6.0 0.00 0.00 0.00 61 1007.7
20260506035042 67 176 0.0 5.0 0.00 0.00 0.00 61 1007.8
20260506034543 67 158 1.0 4.0 0.00 0.00 0.00 61 1007.9
20260506034040 66 121 1.0 4.0 0.00 0.00 0.00 61 1007.8
20260506033539 66 146 0.0 3.0 0.00 0.00 0.00 61 1007.7
20260506033044 66 110 0.0 3.0 0.00 0.00 0.00 61 1007.7
20260506032539 66 113 0.0 3.0 0.00 0.00 0.00 61 1007.7
20260506032038 66 141 0.0 4.0 0.00 0.00 0.00 61 1007.7
20260506031546 66 139 0.0 4.0 0.00 0.00 0.00 61 1007.7
20260506031035 66 123 1.0 3.0 0.00 0.00 0.00 60 1007.7
20260506030537 67 187 0.0 2.0 0.00 0.00 0.00 60 1007.7
20260506030034 67 131 0.0 2.0 0.00 0.00 0.00 60 1007.7
20260506025534 67 143 0.0 3.0 0.00 0.00 0.00 59 1007.6
20260506025033 67 147 0.0 3.0 0.00 0.00 0.00 59 1007.7
20260506024541 67 126 0.0 3.0 0.00 0.00 0.00 59 1007.6
20260506024032 67 157 0.0 3.0 0.00 0.00 0.00 58 1007.8
20260506023532 67 161 0.0 3.0 0.00 0.00 0.00 58 1007.7
20260506023131 68 116 0.0 2.0 0.00 0.00 0.00 57 1007.7
20260506022530 68 131 0.0 4.0 0.00 0.00 0.00 57 1007.7
20260506022032 68 147 0.0 4.0 0.00 0.00 0.00 56 1007.6
20260506021529 68 119 0.0 3.0 0.00 0.00 0.00 56 1007.5
20260506021127 68 115 0.0 3.0 0.00 0.00 0.00 56 1007.6
20260506020525 69 94 0.0 2.0 0.00 0.00 0.00 55 1007.6
20260506020026 69 153 0.0 3.0 0.00 0.00 0.00 55 1007.5
20260506015529 69 162 0.0 3.0 0.00 0.00 0.00 55 1007.6
20260506015025 69 133 0.0 3.0 0.00 0.00 0.00 54 1007.5
20260506014527 70 143 0.0 3.0 0.00 0.00 0.00 54 1007.5
20260506014028 70 135 0.0 3.0 0.00 0.00 0.00 53 1007.5
20260506013524 70 146 0.0 3.0 0.00 0.00 0.00 53 1007.5
20260506013023 70 148 1.0 3.0 0.00 0.00 0.00 52 1007.3
20260506012523 71 142 0.0 3.0 0.00 0.00 0.00 52 1007.3
20260506012021 71 107 0.0 3.0 0.00 0.00 0.00 51 1007.3
20260506011520 72 130 0.0 3.0 0.00 0.00 0.00 50 1007.2
20260506011020 72 118 0.0 4.0 0.00 0.00 0.00 48 1007.1
20260506010519 73 153 0.0 4.0 0.00 0.00 0.00 46 1007.1
20260506010018 74 159 1.0 6.0 0.00 0.00 0.00 45 1006.9
20260506005517 74 150 2.0 6.0 0.00 0.00 0.00 44 1006.9
20260506005017 74 158 2.0 6.0 0.00 0.00 0.00 43 1006.9
20260506004516 74 139 2.0 9.0 0.00 0.00 0.00 44 1006.8
20260506004015 74 134 1.0 7.0 0.00 0.00 0.00 44 1006.8
20260506003515 74 128 1.0 6.0 0.00 0.00 0.00 44 1006.7
20260506003014 74 168 2.0 6.0 0.00 0.00 0.00 44 1006.6
20260506002514 74 168 1.0 6.0 0.00 0.00 0.00 43 1006.6
20260506002012 75 162 2.0 6.0 0.00 0.00 0.00 44 1006.7
20260506001512 75 221 1.0 6.0 0.00 0.00 0.00 44 1006.7
20260506001011 75 213 3.0 7.0 0.00 0.00 0.00 43 1006.6
20260506000510 75 188 3.0 7.0 0.00 0.00 0.00 42 1006.5
20260506000010 75 139 1.0 5.0 0.00 0.00 0.00 43 1006.4
20260505235508 76 160 2.0 5.0 0.00 0.00 0.00 42 1006.3
20260505235007 76 175 1.0 5.0 0.00 0.00 0.00 42 1006.3
20260505234507 76 165 1.0 8.0 0.00 0.00 0.00 42 1006.2
20260505234004 76 166 2.0 8.0 0.00 0.00 0.00 41 1006.2
20260505233506 76 242 1.0 5.0 0.00 0.00 0.00 41 1006.1
20260505233106 76 236 2.0 5.0 0.00 0.00 0.00 40 1006.1
20260505232503 77 205 1.0 7.0 0.00 0.00 0.00 40 1006.0
20260505232003 77 144 0.0 3.0 0.00 0.00 0.00 41 1006.0
20260505231503 77 159 0.0 16.0 0.00 0.00 0.00 40 1006.0
20260505231003 78 122 1.0 16.0 0.00 0.00 0.00 40 1006.0
20260505230501 78 169 3.0 10.0 0.00 0.00 0.00 38 1006.0
20260505230002 78 165 2.0 7.0 0.00 0.00 0.00 39 1005.9
20260505225504 78 143 2.0 6.0 0.00 0.00 0.00 39 1005.9
20260505225100 78 203 2.0 7.0 0.00 0.00 0.00 39 1006.0
20260505224600 78 147 2.0 8.0 0.00 0.00 0.00 39 1006.0
20260505224157 79 117 2.0 8.0 0.00 0.00 0.00 39 1006.0
20260505223558 80 154 2.0 7.0 0.00 0.00 0.00 39 1006.0
20260505223105 80 192 0.0 9.0 0.00 0.00 0.00 40 1006.1
20260505222557 80 171 1.0 9.0 0.00 0.00 0.00 40 1006.2
20260505222058 79 202 0.0 4.0 0.00 0.00 0.00 40 1006.0